Weather History for Rome, NY

Change the Weather History Date:

Saturday, April 12, 2014

  Actual Average Record
Temperature  
Mean Temperature 46 °F -  
Max Temperature 64 °F 50 °F 65 °F (1984)
Min Temperature 28 °F 32 °F 22 °F (1985)
Degree Days  
Heating Degree Days 20    
Moisture  
Dew Point 31 °F    
Average Humidity 58    
Maximum Humidity 89    
Minimum Humidity 30    
Precipitation  
Precipitation 0.00 in - - ()
Sea Level Pressure  
Sea Level Pressure 30.15 in    
Wind  
Wind Speed 4 mph (ESE)    
Max Wind Speed 16 mph    
Max Gust Speed 25 mph    
Visibility 10 miles    
Events      
Averages and records for this station are not official NWS values.
T = Trace of Precipitation, MM = Missing Value Source: NWS Daily Summary

Daily Weather History Graph

Daily Weather History Graph

Search for Another Location

Airport:

Trip Planner

Search our weather history database for the weather conditions in past years. The results will help you decide how hot, cold, wet, or windy it might be!

Date:

Astronomy

Apr. 12, 2014 Rise Set
Actual Time 6:24 AM EDT 7:40 PM EDT
Civil Twilight 5:55 AM EDT 8:10 PM EDT
Nautical Twilight 5:19 AM EDT 8:45 PM EDT
Astronomical Twilight 4:42 AM EDT 9:23 PM EDT
Moon 5:13 PM EDT (4/12) 4:54 AM EDT (4/12)
Length of Visible Light 14h 15m
Length of Day
13h 16m
Waxing Gibbous, 93% of the Moon is Illuminated
Apr 12
Waxing Gibbous
Apr 15
Full
Apr 22
Last Quarter
Apr 29
New
May 6
First Quarter

Hourly Weather History & Observations

Time (EDT) Temp. Windchill Dew Point Humidity Pressure Visibility Wind Dir Wind Speed Gust Speed Precip Events Conditions
12:53 AM 33.1 °F - 28.0 °F 82% 30.08 in 10.0 mi Calm Calm - N/A   Clear
1:53 AM 32.0 °F - 28.0 °F 85% 30.08 in 10.0 mi Calm Calm - N/A   Clear
2:53 AM 30.9 °F - 27.0 °F 85% 30.10 in 10.0 mi Calm Calm - N/A   Partly Cloudy
3:53 AM 33.1 °F - 27.0 °F 78% 30.11 in 10.0 mi Calm Calm - N/A   Mostly Cloudy
4:53 AM 28.9 °F - 26.1 °F 89% 30.13 in 10.0 mi Calm Calm - N/A   Clear
5:53 AM 30.0 °F 26.5 °F 27.0 °F 88% 30.14 in 10.0 mi SE 3.5 mph - N/A   Clear
6:25 AM 32.0 °F 27.5 °F 28.9 °F 88% 30.15 in 10.0 mi ESE 4.6 mph - N/A   Mostly Cloudy
6:53 AM 33.1 °F 30.0 °F 30.0 °F 89% 30.15 in 10.0 mi ESE 3.5 mph - N/A   Scattered Clouds
7:53 AM 36.0 °F - 32.0 °F 86% 30.18 in 10.0 mi Calm Calm - N/A   Partly Cloudy
8:53 AM 43.0 °F 41.3 °F 36.0 °F 76% 30.19 in 10.0 mi SE 3.5 mph - N/A   Clear
9:53 AM 46.9 °F - 37.0 °F 68% 30.19 in 10.0 mi Calm Calm - N/A   Clear
10:53 AM 52.0 °F - 37.0 °F 57% 30.21 in 10.0 mi West 6.9 mph - N/A   Clear
11:53 AM 55.9 °F - 36.0 °F 47% 30.19 in 10.0 mi Variable 6.9 mph - N/A   Clear
12:53 PM 59.0 °F - 36.0 °F 42% 30.18 in 10.0 mi WNW 11.5 mph - N/A   Clear
1:53 PM 61.0 °F - 32.0 °F 34% 30.17 in 10.0 mi WSW 15.0 mph - N/A   Clear
2:53 PM 63.0 °F - 30.9 °F 30% 30.16 in 10.0 mi West 16.1 mph 25.3 mph N/A   Clear
3:53 PM 63.0 °F - 30.9 °F 30% 30.15 in 10.0 mi WSW 8.1 mph 17.3 mph N/A   Clear
4:53 PM 63.0 °F - 30.9 °F 30% 30.15 in 10.0 mi WSW 9.2 mph - N/A   Clear
5:53 PM 62.1 °F - 32.0 °F 32% 30.14 in 10.0 mi West 8.1 mph - N/A   Clear
6:53 PM 60.1 °F - 30.9 °F 33% 30.14 in 10.0 mi NE 6.9 mph - N/A   Clear
7:53 PM 57.0 °F - 30.9 °F 37% 30.13 in 10.0 mi NE 5.8 mph - N/A   Clear
8:53 PM 54.0 °F - 30.9 °F 41% 30.15 in 10.0 mi ENE 4.6 mph - N/A   Clear
9:53 PM 53.1 °F - 30.0 °F 41% 30.15 in 10.0 mi East 6.9 mph - N/A   Clear
10:53 PM 52.0 °F - 28.9 °F 41% 30.13 in 10.0 mi East 6.9 mph - N/A   Clear
11:53 PM 52.0 °F - 28.9 °F 41% 30.12 in 10.0 mi East 8.1 mph - N/A   Scattered Clouds